OBJECT M, 64887

Orbit data source: Space-Track

You're viewing an Uncataloged Satellite

Recently launched and/or uncataloged satellites may have evolving metadata. Metadata may include but not limited to: Owner, Maufacturer, Bus, Motor, and Mission.

OBJECT M, 64887 is a satellite in SSO that was launched on Fri, 25 Jul 2025 UTC via a SOYUZ-2-1B launch vehicle from the Vostochny Cosmodrome (VOSTO). Unknown objects in Earth's orbit typically refer to objects detected orbiting the Earth but have not yet been identified or cataloged. These objects could be anything from previously untracked satellites, spent rocket stages, debris from satellite collisions, or even natural meteoroids temporarily captured by Earth's gravity.

Loading next visibility...
Identifier
64887, 2025-155M
Orbit
SSO
Country
Flag of TBDTBD
Related business
None
Manufacturer
Unknown
Mission
Operational Commercial Technology
Bus & Motor
Unknown
Mass
Unknown
Launch date (UTC)
2025-07-25 (8 months ago)
Launch vehicle
SOYUZ-2-1B
Launch site
Vostochny Cosmodrome (VOSTO)
Object type
Unknown
Shape & HBR
Box, 1.1 m
Radar Cross Section
0.035 m², Small (<0.1 m²)

Expand to show TLE details & history
Last TLE update: 10 hours ago

TLE from 10 hours ago
0 OBJECT M
1 64887U 25155M   26073.90189190  .00033133  00000-0  10181-2 0  9992
2 64887  97.4426  43.0982 0009448 125.6654 234.5469 15.33591559 66413
Epoch: 2026-03-14T21:38Z
TLE epoch observation values (Epoch: 2026-03-14T21:38:43.460Z)
Latitude
-0.00003°
Longitude
-94.0993°
Altitude
471.97 km
Speed
7.628 km/s
True Right ascension
02h 52m 23s
True Declination
0° 00' 00"
Sunlit
Object was in daylight at epoch
Visualization orbit readout
Latitude
Unknown
Longitude
Unknown
Altitude
Unknown
Speed
Unknown
Apparent Right ascension
Unknown
Apparent Declination
Unknown
Sunlit
N/A
Visualization observer readout
Local Sidereal Time
12:15:41
Azimuth
Unknown
Elevation
Unknown
Doppler factor
Unknown
Orbital elements
Apogee altitude
468.519 km
Perigee altitude
455.594 km
Semi-major axis
6,840.193 km
Eccentricity
0.00094
Inclination
97.4426°
RAAN
43.0982°
Arg. of periapsis
125.6654°
True anomaly
234.45877°
Mean anomaly
234.5469°
Eccentric anomaly
234.50283°
Mean motion
3.83655 °/min
Orbital period
93.83 mins
BSTAR
0.0010181
Loading maneuver chart data...
Computing Atmospheric mass density...
Loading historical data...
Loading historical data...
Loading historical data...
Loading historical data...
Loading historical data...
Loading historical data...
Loading historical data...

Documentation

Showing up to 5 results
|